PBO Station Position Time Series. Reference Frame : NAM14
Format Version,1.1.0
4-character ID,PSTX
Station name,SanIsidoroMX2010
Begin Date, 2010-08-31
End Date, 2019-04-12
Release Date, 2019-10-03
Reference position, 31.3131214806 North Latitude, -115.8354332443 East Longitude, 902.11756 meters elevation,
Date, North (mm), East (mm), Vertical (mm), North Std. Deviation (mm), East Std. Deviation (mm),              Vertical Std. Deviation (mm), Quality,
2010-08-31,0.00, 0.00, 0.00, 2.00, 1.78, 7.99, repro,
2010-09-01,-0.61, -0.47, -5.24, 1.79, 1.64, 7.27, repro,
2010-09-02,-0.63, -0.53, -5.63, 1.76, 1.61, 7.13, repro,
2010-09-03,-0.86, -0.54, -6.37, 1.77, 1.61, 7.16, repro,
2010-09-04,-0.80, -0.49, -8.32, 1.77, 1.62, 7.14, repro,
2010-09-05,0.48, 0.23, 3.08, 1.77, 1.62, 7.20, repro,
2010-09-06,0.27, 0.47, 1.81, 1.78, 1.63, 7.26, repro,
2010-09-07,-1.16, -0.61, -7.20, 1.77, 1.61, 7.16, repro,
2010-09-08,-1.19, 0.41, -8.80, 1.76, 1.61, 7.12, repro,
2010-09-09,-0.63, 0.75, -9.68, 1.76, 1.62, 7.12, repro,
2010-09-10,-0.33, 0.68, -11.53, 1.77, 1.62, 7.17, repro,
2010-09-11,-0.37, 0.29, -9.17, 1.81, 1.69, 7.32, repro,
2010-09-12,0.24, -0.29, -8.21, 1.78, 1.62, 7.20, repro,
2010-09-13,0.81, -0.56, -10.34, 1.77, 1.62, 7.17, repro,
2010-09-14,0.39, -0.38, -9.04, 1.77, 1.61, 7.14, repro,
2010-09-15,-0.63, -1.14, -4.07, 1.78, 1.63, 7.23, repro,
2010-09-16,-0.35, 0.24, -8.42, 1.78, 1.64, 7.24, repro,
2010-09-17,-0.33, -1.20, -5.53, 1.78, 1.62, 7.20, repro,
2010-09-18,-0.31, -1.38, -3.02, 1.77, 1.62, 7.21, repro,
2010-09-19,-0.25, -0.85, -4.62, 1.77, 1.61, 7.17, repro,
2010-09-20,-1.57, 0.30, -3.22, 1.77, 1.62, 7.19, repro,
2010-09-21,-0.51, -0.52, -2.03, 1.78, 1.65, 7.33, repro,
2010-09-22,-0.34, -1.30, -1.37, 1.80, 1.67, 7.39, repro,
2010-09-23,0.76, -0.19, -3.03, 1.85, 1.64, 7.37, repro,
2010-09-24,0.50, -0.53, -9.48, 1.76, 1.60, 7.10, repro,
2010-09-25,0.02, 0.48, -5.71, 1.78, 1.62, 7.19, repro,
2010-09-26,-1.50, -0.36, -10.01, 1.79, 1.66, 7.27, repro,
2010-09-27,0.03, 0.24, -9.75, 1.83, 1.66, 7.19, repro,
2010-09-28,0.73, -2.00, -2.03, 1.84, 1.69, 7.34, repro,
2010-09-29,-0.90, -1.32, -3.42, 1.78, 1.62, 7.18, repro,
2010-09-30,0.04, -1.17, -4.44, 1.81, 1.64, 7.27, repro,
2010-10-01,-1.12, -1.03, -2.44, 1.86, 1.74, 7.67, repro,
2010-10-02,-0.97, -3.57, 0.05, 1.82, 1.67, 7.42, repro,
2010-10-03,-0.77, -0.39, -18.05, 1.82, 1.65, 7.29, repro,
2010-10-04,0.46, -0.94, -6.21, 1.86, 1.67, 7.45, repro,
2010-10-05,-1.13, 0.39, -10.87, 1.82, 1.65, 7.34, repro,
2010-10-06,-0.39, -0.80, -14.66, 1.78, 1.61, 7.17, repro,
2010-10-07,0.92, 0.58, -18.60, 1.78, 1.61, 7.13, repro,
2010-10-08,0.92, -0.37, -15.19, 1.91, 1.74, 7.69, repro,
2010-10-09,-0.58, -0.92, -8.89, 1.82, 1.64, 7.33, repro,
2010-10-10,-0.11, 0.48, -4.56, 1.87, 1.68, 7.49, repro,
2010-10-11,0.15, 0.70, -10.26, 1.87, 1.72, 7.60, repro,
2010-10-12,0.47, -0.01, -12.93, 1.83, 1.63, 7.30, repro,
2010-10-13,-0.50, -1.03, -14.34, 1.85, 1.67, 7.38, repro,
2010-10-14,-0.31, -1.40, -9.41, 1.80, 1.66, 7.35, repro,
2010-10-15,-0.00, 0.23, -1.69, 1.80, 1.65, 7.34, repro,
2010-10-16,-0.26, 0.06, -10.12, 1.80, 1.60, 7.13, repro,
2010-10-17,-0.44, -0.13, -10.56, 1.82, 1.62, 7.18, repro,
2010-10-18,-0.50, -0.94, -13.81, 1.85, 1.66, 7.24, repro,
2010-10-19,-0.59, -0.81, -14.78, 1.88, 1.72, 7.32, repro,
2010-10-20,-0.40, -1.10, -7.41, 1.81, 1.65, 7.26, repro,
2010-10-21,0.62, 0.13, -9.20, 1.84, 1.69, 7.37, repro,
2010-10-22,0.05, -1.29, -7.58, 1.84, 1.64, 7.31, repro,
2010-10-23,-0.01, -0.71, -16.43, 1.85, 1.65, 7.33, repro,
2010-10-24,-0.03, -1.32, -11.76, 1.83, 1.67, 7.41, repro,
2010-10-25,0.41, -2.51, -10.17, 1.85, 1.65, 7.29, repro,
2010-10-26,1.52, -1.52, -7.99, 1.78, 1.61, 7.13, repro,
2010-10-27,1.20, -0.70, -9.79, 1.79, 1.61, 7.19, repro,
2010-10-28,1.00, -1.35, -12.36, 1.82, 1.64, 7.23, repro,
2010-10-29,0.08, -1.17, -12.74, 1.78, 1.60, 7.12, repro,
2010-10-30,-0.73, -1.43, -13.32, 1.77, 1.59, 7.06, repro,
2010-10-31,-0.66, -1.31, -11.50, 1.85, 1.72, 7.38, repro,
2010-11-01,-0.01, -1.30, -10.68, 1.89, 1.75, 7.48, repro,
2010-11-02,0.85, -0.62, -15.55, 1.82, 1.64, 7.22, repro,
2010-11-03,0.72, -1.56, -12.33, 1.83, 1.66, 7.28, repro,
2010-11-04,-0.11, -0.16, -12.02, 1.79, 1.61, 7.12, repro,
2010-11-05,0.06, -1.31, -9.53, 1.86, 1.68, 7.35, repro,
2010-11-06,0.71, -1.43, -9.15, 1.82, 1.64, 7.22, repro,
2010-11-07,-0.57, -1.42, -8.75, 1.86, 1.67, 7.33, repro,
2010-11-08,0.33, -1.57, -4.27, 1.80, 1.61, 7.18, repro,
2010-11-09,0.29, -1.42, -9.64, 1.85, 1.65, 7.31, repro,
2010-11-10,0.01, -1.42, -8.56, 1.83, 1.65, 7.24, repro,
2010-11-11,-0.01, -1.90, -8.68, 1.86, 1.67, 7.28, repro,
2010-11-12,1.19, -0.95, -14.44, 1.82, 1.62, 7.18, repro,
2010-11-13,0.80, -1.40, -13.67, 1.96, 1.85, 7.98, repro,
2010-11-14,0.06, -1.09, -9.79, 1.93, 1.71, 7.79, repro,
2010-11-15,1.05, -0.26, -6.55, 1.88, 1.67, 7.61, repro,
2010-11-16,-0.08, -0.61, -8.74, 1.90, 1.67, 7.59, repro,
2010-11-17,0.02, 0.25, -9.79, 2.07, 1.79, 8.19, repro,
2010-11-18,0.62, -0.20, -9.49, 1.86, 1.64, 7.47, repro,
2010-11-19,-0.67, -0.95, -8.55, 1.89, 1.66, 7.51, repro,
2010-11-20,-0.58, -1.00, -9.06, 1.89, 1.65, 7.57, repro,
2010-11-21,0.52, 0.92, -10.80, 1.90, 1.72, 7.52, repro,
2010-11-22,-0.78, -1.92, -8.85, 1.90, 1.71, 7.49, repro,
2010-11-23,-0.54, -1.39, -8.79, 1.85, 1.64, 7.50, repro,
2010-11-24,-1.46, -1.67, -6.64, 1.83, 1.63, 7.33, repro,
2010-11-25,-1.46, -1.99, -8.43, 1.93, 1.67, 7.80, repro,
2010-11-26,0.24, -0.73, -8.82, 1.93, 1.66, 7.76, repro,
2010-11-27,-0.10, -1.06, -9.39, 1.85, 1.64, 7.50, repro,
2010-11-28,0.60, -1.40, -8.89, 1.93, 1.65, 7.73, repro,
2010-11-29,0.07, -0.24, -14.32, 1.85, 1.64, 7.52, repro,
2010-11-30,0.97, -0.87, -12.60, 1.89, 1.65, 7.65, repro,
2010-12-01,-0.11, -0.49, -11.78, 1.88, 1.64, 7.59, repro,
2010-12-02,-0.83, -0.02, -16.37, 1.86, 1.64, 7.55, repro,
2010-12-03,-0.33, -0.28, -13.61, 1.86, 1.64, 7.53, repro,
2010-12-04,-0.01, -0.55, -14.35, 1.86, 1.64, 7.55, repro,
2010-12-05,-0.93, -0.38, -12.68, 1.95, 1.66, 7.82, repro,
2010-12-06,-1.66, -1.42, -13.05, 1.90, 1.70, 7.58, repro,
2010-12-07,-0.50, -0.44, -10.03, 1.88, 1.68, 7.67, repro,
2010-12-08,-0.51, -1.62, -14.32, 1.93, 1.65, 7.79, repro,
2010-12-09,-0.26, -1.15, -14.18, 1.84, 1.63, 7.36, repro,
2010-12-10,0.09, -1.93, -7.12, 1.89, 1.70, 7.75, repro,
2010-12-11,-0.17, -1.12, -7.63, 1.84, 1.63, 7.31, repro,
2010-12-12,1.43, -1.44, -12.91, 1.84, 1.57, 7.23, repro,
2010-12-13,-0.67, -1.80, -9.03, 1.92, 1.58, 7.41, repro,
2010-12-14,0.19, -1.99, -6.46, 1.96, 1.73, 7.72, repro,
2010-12-15,-0.10, -0.93, -3.30, 1.93, 1.70, 7.61, repro,
2010-12-16,-1.28, -1.51, -6.05, 1.83, 1.60, 7.25, repro,
2010-12-17,-2.19, -2.37, -13.07, 1.87, 1.59, 7.22, repro,
2010-12-18,-0.23, -1.02, -12.16, 1.80, 1.57, 7.06, repro,
2010-12-19,-1.84, -3.04, -6.33, 1.89, 1.63, 7.43, repro,
2010-12-20,-1.32, -1.79, -10.17, 1.89, 1.63, 7.44, repro,
2010-12-21,-1.93, 1.23, -16.90, 1.93, 1.70, 7.63, repro,
2010-12-22,0.46, -0.40, -11.81, 1.92, 1.65, 7.59, repro,
2010-12-23,-1.07, -2.50, -7.79, 1.91, 1.65, 7.54, repro,
2010-12-24,-0.46, -1.22, -12.85, 1.83, 1.61, 7.29, repro,
2010-12-25,-1.07, -1.13, -10.22, 1.83, 1.59, 7.25, repro,
2010-12-26,-2.02, -1.81, -10.72, 1.83, 1.60, 7.29, repro,
2010-12-27,0.64, -1.43, -11.21, 1.83, 1.61, 7.27, repro,
2010-12-28,0.75, -1.05, -9.51, 1.86, 1.65, 7.38, repro,
2010-12-29,-1.50, -1.80, -5.01, 1.90, 1.68, 7.51, repro,
2010-12-30,0.07, -2.84, -3.55, 1.87, 1.63, 7.38, repro,
2010-12-31,-1.45, -1.39, -7.03, 1.84, 1.61, 7.31, repro,
2011-01-01,-0.24, -0.84, -9.07, 1.83, 1.60, 7.29, repro,
2011-01-02,-0.94, 0.07, -11.90, 2.14, 1.78, 8.51, repro,
2011-01-03,-0.66, -0.85, -11.82, 1.86, 1.66, 7.41, repro,
2011-01-04,-0.35, -1.18, -12.25, 1.89, 1.65, 7.46, repro,
2011-01-05,0.40, -1.30, -12.21, 1.87, 1.66, 7.48, repro,
2011-01-06,-0.30, -2.16, -12.82, 1.88, 1.64, 7.39, repro,
2011-01-07,-0.28, -1.82, -7.51, 1.85, 1.64, 7.41, repro,
2011-01-08,-0.53, -1.42, -11.49, 1.83, 1.62, 7.28, repro,
2011-01-09,-0.11, -0.55, -7.27, 1.81, 1.57, 7.15, repro,
2011-01-10,-0.71, -2.02, -10.96, 1.91, 1.71, 7.58, repro,
2011-01-11,-0.26, -0.95, -10.07, 1.89, 1.71, 7.62, repro,
2011-01-12,0.46, -0.95, -15.04, 1.85, 1.62, 7.27, repro,
2011-01-13,0.08, -1.11, -13.97, 1.90, 1.71, 7.48, repro,
2011-01-14,-0.30, -1.01, -12.49, 1.84, 1.62, 7.26, repro,
2011-01-15,1.74, -1.85, -10.61, 1.84, 1.63, 7.32, repro,
2011-01-16,1.36, -1.69, -7.78, 1.86, 1.63, 7.37, repro,
2011-01-17,2.48, -0.89, -5.30, 1.82, 1.57, 7.17, repro,
2011-01-18,-0.36, -1.30, -6.43, 1.85, 1.61, 7.32, repro,
2011-01-19,-1.07, -1.54, -7.67, 1.86, 1.67, 7.43, repro,
2011-01-20,1.08, -1.79, -7.51, 1.84, 1.62, 7.31, repro,
2011-01-21,0.84, -2.22, -5.49, 1.85, 1.68, 7.48, repro,
2011-01-22,0.56, -1.51, -4.33, 1.87, 1.66, 7.53, repro,
2011-01-23,1.97, -2.21, -9.05, 1.89, 1.70, 7.69, repro,
2011-01-24,0.66, -1.56, -7.57, 1.87, 1.71, 7.72, repro,
2011-01-25,1.41, -1.59, -9.59, 1.85, 1.65, 7.46, repro,
2011-01-26,0.68, -1.27, -7.03, 2.02, 1.79, 8.24, repro,
2011-01-27,0.22, -2.58, -15.41, 1.89, 1.78, 7.87, repro,
2011-01-28,0.45, -0.55, -10.08, 1.81, 1.57, 7.19, repro,
2011-01-29,0.18, -1.58, -12.87, 1.84, 1.60, 7.34, repro,
2011-01-30,0.97, -2.24, -12.39, 1.83, 1.59, 7.30, repro,
2011-01-31,0.20, -1.98, -14.87, 1.88, 1.71, 7.69, repro,
2011-02-01,0.82, -2.07, -17.38, 1.86, 1.64, 7.45, repro,
2011-02-02,2.62, -1.99, -19.25, 1.85, 1.65, 7.45, repro,
2011-02-03,1.04, -2.03, -19.19, 1.90, 1.67, 7.53, repro,
2011-02-04,0.95, -2.81, -16.93, 1.89, 1.70, 7.53, repro,
2011-02-05,1.41, -2.49, -11.74, 1.86, 1.63, 7.49, repro,
2011-02-06,0.57, -2.94, -12.79, 1.95, 1.83, 8.06, repro,
2011-02-07,0.68, -2.39, -11.62, 1.88, 1.69, 7.62, repro,
2011-02-08,-0.35, -2.77, -7.49, 1.86, 1.63, 7.50, repro,
2011-02-09,2.42, -1.72, -10.63, 1.85, 1.65, 7.45, repro,
2011-02-10,1.70, -2.26, -11.17, 1.86, 1.65, 7.49, repro,
2011-02-11,1.52, -2.69, -7.52, 1.96, 1.78, 7.97, repro,
2011-02-12,2.14, -1.79, -9.63, 1.91, 1.77, 7.93, repro,
2011-02-13,2.08, -2.38, -7.88, 1.84, 1.66, 7.54, repro,
2011-02-14,2.05, -2.18, -14.19, 1.83, 1.60, 7.38, repro,
2011-02-15,0.77, -3.39, -11.80, 1.95, 1.80, 8.13, repro,
2011-02-16,1.08, -2.46, -10.60, 2.02, 1.88, 8.28, repro,
2011-02-17,-0.30, -3.13, -9.74, 1.86, 1.64, 7.49, repro,
2011-02-18,0.35, -1.90, -17.49, 1.88, 1.67, 7.64, repro,
2011-02-19,-0.33, -1.44, -17.52, 1.82, 1.59, 7.29, repro,
2011-02-20,0.08, -2.50, -13.95, 1.82, 1.58, 7.24, repro,
2011-02-21,1.48, -2.30, -10.25, 1.83, 1.58, 7.26, repro,
2011-02-22,0.79, -2.02, -8.47, 1.84, 1.60, 7.34, repro,
2011-02-23,-1.02, -1.98, -9.58, 1.87, 1.64, 7.39, repro,
2011-02-24,0.48, -1.23, -6.58, 1.80, 1.56, 7.15, repro,
2011-02-25,-1.28, -2.07, -8.94, 1.82, 1.56, 7.21, repro,
2011-02-26,-1.03, -2.23, -10.20, 1.81, 1.56, 7.15, repro,
2011-02-27,-1.24, -2.53, -5.13, 1.83, 1.56, 7.22, repro,
2011-02-28,1.02, -2.63, -9.47, 1.82, 1.56, 7.19, repro,
2011-03-01,-0.64, -2.10, -6.36, 1.81, 1.55, 7.15, repro,
2011-03-02,0.82, -2.70, -12.57, 1.82, 1.56, 7.20, repro,
2011-03-03,-0.73, -0.93, -13.34, 1.82, 1.57, 7.22, repro,
2011-03-04,0.20, -1.40, -15.32, 1.81, 1.55, 7.14, repro,
2011-03-05,0.27, -2.07, -11.51, 1.83, 1.56, 7.21, repro,
2011-03-06,0.13, -2.04, -18.14, 1.81, 1.55, 7.18, repro,
2011-03-07,0.50, -3.55, -10.17, 1.81, 1.56, 7.19, repro,
2011-03-08,0.69, -2.79, -13.91, 1.81, 1.56, 7.19, repro,
2011-03-09,1.76, -1.58, -13.81, 1.82, 1.56, 7.20, repro,
2011-03-10,1.11, -2.67, -10.11, 1.82, 1.56, 7.20, repro,
2011-03-11,0.84, -2.67, -11.14, 1.81, 1.56, 7.17, repro,
2011-03-12,1.42, -2.01, -10.27, 1.82, 1.56, 7.18, repro,
2011-03-13,0.73, -2.49, -14.41, 1.84, 1.58, 7.24, repro,
2011-03-14,0.85, -1.90, -13.29, 1.88, 1.64, 7.37, repro,
2011-03-15,1.45, -2.03, -7.78, 2.09, 1.69, 8.16, repro,
2011-03-16,1.77, -3.34, -12.72, 1.92, 1.66, 7.46, repro,
2011-03-17,0.76, -2.84, -15.12, 1.96, 1.67, 7.58, repro,
2011-03-18,0.45, -2.06, -16.27, 2.13, 1.66, 8.27, repro,
2011-03-19,0.50, -3.03, -16.96, 1.96, 1.71, 7.64, repro,
2011-03-20,0.08, -2.37, -15.70, 1.87, 1.60, 7.36, repro,
2011-03-21,-0.92, -3.07, -11.35, 1.89, 1.62, 7.41, repro,
2011-03-22,1.07, -2.04, -8.52, 1.93, 1.65, 7.50, repro,
2011-03-23,0.50, -3.17, -9.31, 1.92, 1.66, 7.56, repro,
2011-03-24,0.82, -2.42, -6.23, 1.91, 1.67, 7.46, repro,
2011-03-25,0.16, -2.40, -6.50, 2.01, 1.67, 7.75, repro,
2011-03-26,-0.31, -3.32, -8.37, 2.09, 1.70, 8.12, repro,
2011-03-27,0.84, -3.00, -14.42, 1.90, 1.68, 7.45, repro,
2011-03-28,0.88, -3.10, -13.86, 1.85, 1.59, 7.30, repro,
2011-03-29,0.57, -3.50, -13.37, 1.84, 1.59, 7.28, repro,
2011-03-30,0.13, -2.88, -13.82, 1.85, 1.59, 7.31, repro,
2011-03-31,-0.85, -2.91, -13.12, 2.05, 1.67, 8.04, repro,
2011-04-01,0.21, -2.42, -12.93, 1.89, 1.60, 7.40, repro,
2011-04-02,-0.33, -2.49, -12.05, 1.95, 1.71, 7.65, repro,
2011-04-03,0.08, -3.79, -15.85, 1.90, 1.62, 7.52, repro,
2011-04-04,0.42, -2.97, -11.95, 1.91, 1.63, 7.55, repro,
2011-04-05,1.23, -3.23, -10.54, 1.89, 1.66, 7.62, repro,
2011-04-06,0.44, -4.48, -9.85, 1.88, 1.62, 7.52, repro,
2011-04-07,0.86, -2.54, -12.83, 1.83, 1.57, 7.30, repro,
2011-04-08,0.40, -2.21, -11.74, 1.89, 1.60, 7.42, repro,
2011-04-09,0.84, -1.34, -12.95, 1.90, 1.60, 7.47, repro,
2011-04-10,1.78, -2.99, -11.78, 1.87, 1.61, 7.38, repro,
2011-04-11,1.71, -3.33, -14.25, 1.94, 1.67, 7.61, repro,
2011-04-12,0.86, -3.35, -16.72, 1.88, 1.64, 7.51, repro,
2011-04-13,1.60, -3.71, -11.98, 1.82, 1.57, 7.25, repro,
2011-04-14,1.16, -2.05, -13.73, 1.83, 1.58, 7.31, repro,
2011-04-15,-0.15, -2.79, -17.80, 1.82, 1.57, 7.25, repro,
2011-04-16,-0.52, -2.53, -10.13, 1.81, 1.56, 7.17, repro,
2011-04-17,-0.01, -1.94, -11.96, 1.82, 1.56, 7.19, repro,
2011-04-18,-0.04, -3.69, -6.88, 1.82, 1.56, 7.21, repro,
2011-04-19,0.34, -2.10, -9.54, 1.83, 1.57, 7.26, repro,
2011-04-20,0.77, -2.51, -12.78, 1.82, 1.56, 7.24, repro,
2011-04-21,0.08, -1.75, -11.09, 1.87, 1.59, 7.54, repro,
2011-04-22,0.45, -2.93, -10.27, 1.82, 1.56, 7.20, repro,
2011-04-23,-0.66, -2.27, -6.65, 1.83, 1.56, 7.22, repro,
2011-04-24,-1.25, -0.72, -9.98, 1.82, 1.55, 7.20, repro,
2011-04-25,2.02, -2.26, -12.59, 1.83, 1.56, 7.23, repro,
2011-04-26,0.62, -3.82, -9.50, 1.81, 1.55, 7.22, repro,
2011-04-27,1.01, -2.56, -7.44, 1.81, 1.55, 7.21, repro,
2011-04-28,1.37, -2.18, -11.18, 1.83, 1.57, 7.32, repro,
2011-04-29,0.57, -2.09, -10.76, 1.82, 1.55, 7.20, repro,
2011-04-30,0.15, -2.97, -7.49, 1.97, 1.84, 8.12, repro,
2011-05-01,-0.01, -2.73, -5.98, 1.82, 1.55, 7.20, repro,
2011-05-02,1.20, -2.71, -9.93, 1.80, 1.55, 7.16, repro,
2011-05-03,0.55, -2.84, -11.98, 1.83, 1.59, 7.31, repro,
2011-05-04,0.34, -2.71, -11.42, 1.84, 1.59, 7.33, repro,
2011-05-05,0.57, -2.06, -10.39, 1.85, 1.57, 7.30, repro,
2011-05-06,1.32, -2.80, -6.31, 1.86, 1.57, 7.31, repro,
2011-05-07,-0.45, -3.72, -5.70, 1.84, 1.60, 7.35, repro,
2011-05-08,-0.03, -3.06, -3.48, 1.82, 1.59, 7.30, repro,
2011-05-09,-0.74, -3.48, -3.45, 1.83, 1.60, 7.36, repro,
2011-05-10,1.31, -2.14, -3.72, 1.83, 1.59, 7.33, repro,
2011-05-11,0.77, -2.57, -0.74, 1.82, 1.56, 7.22, repro,
2011-05-12,0.06, -2.38, -5.82, 1.82, 1.55, 7.20, repro,
2011-05-13,0.00, -0.33, -11.65, 1.86, 1.63, 7.53, repro,
2011-05-14,0.11, -4.01, -10.44, 1.86, 1.64, 7.49, repro,
2011-05-15,0.18, -3.05, -8.76, 1.84, 1.60, 7.34, repro,
2011-05-16,0.82, -3.17, -12.23, 1.83, 1.60, 7.32, repro,
2011-05-17,-0.06, -3.18, -3.52, 1.85, 1.60, 7.40, repro,
2011-05-18,-1.87, -2.51, -9.88, 1.86, 1.65, 7.53, repro,
2011-05-19,-0.78, -2.30, -6.95, 1.85, 1.65, 7.50, repro,
2011-05-20,0.13, -1.95, -12.77, 1.86, 1.65, 7.51, repro,
2011-05-21,-1.01, -0.80, -6.36, 1.86, 1.65, 7.51, repro,
2011-05-22,0.59, -3.36, -9.04, 1.85, 1.61, 7.37, repro,
2011-05-23,0.34, -3.85, -7.56, 1.85, 1.60, 7.37, repro,
2011-05-24,-0.31, -3.33, -12.70, 1.87, 1.65, 7.55, repro,
2011-05-25,-0.09, -3.03, -6.86, 1.92, 1.71, 7.64, repro,
2011-05-26,1.63, -3.04, -10.76, 1.87, 1.66, 7.57, repro,
2011-05-27,-0.32, -2.26, -6.38, 1.85, 1.64, 7.45, repro,
2011-05-28,-0.17, -0.81, -8.87, 1.86, 1.64, 7.52, repro,
2011-05-29,-0.34, -2.41, -6.47, 1.87, 1.65, 7.55, repro,
2011-05-30,1.31, -3.23, -3.92, 1.92, 1.71, 7.65, repro,
2011-05-31,1.97, -3.83, -8.47, 1.85, 1.60, 7.38, repro,
2011-06-01,1.43, -3.12, -11.00, 1.86, 1.63, 7.47, repro,
2011-06-02,1.58, -3.07, -3.27, 1.85, 1.63, 7.44, repro,
2011-06-03,0.19, -2.86, -6.24, 1.84, 1.59, 7.36, repro,
2011-06-04,0.15, -3.56, -11.16, 1.86, 1.59, 7.38, repro,
2011-06-05,1.00, -3.54, -11.90, 1.85, 1.60, 7.36, repro,
2011-06-06,0.57, -4.23, -5.52, 1.84, 1.59, 7.30, repro,
2011-06-07,1.73, -3.41, -6.73, 1.83, 1.58, 7.26, repro,
2011-06-08,0.86, -2.77, -9.33, 1.83, 1.59, 7.32, repro,
2011-06-09,1.86, -3.72, -6.78, 1.85, 1.59, 7.38, repro,
2011-06-10,0.72, -3.53, -9.25, 1.85, 1.60, 7.36, repro,
2011-06-11,2.13, -3.59, 1.22, 1.84, 1.59, 7.33, repro,
2011-06-12,1.51, -3.34, -4.56, 1.84, 1.60, 7.35, repro,
2011-06-13,1.41, -3.65, -3.23, 1.82, 1.59, 7.28, repro,
2011-06-14,0.28, -1.87, -4.04, 1.84, 1.59, 7.36, repro,
2011-06-15,0.05, -2.99, -7.31, 1.85, 1.60, 7.38, repro,
2011-06-16,1.80, -5.16, -4.59, 1.84, 1.60, 7.36, repro,
2011-06-17,1.16, -4.18, -0.53, 1.85, 1.61, 7.43, repro,
2011-06-18,1.26, -3.61, -14.15, 1.83, 1.59, 7.31, repro,
2011-06-19,2.32, -4.60, -5.53, 1.84, 1.60, 7.31, repro,
2011-06-20,1.81, -3.64, -5.82, 1.84, 1.59, 7.31, repro,
2011-06-21,1.38, -3.36, -1.97, 1.85, 1.60, 7.35, repro,
2011-06-22,0.99, -4.58, -3.06, 1.85, 1.61, 7.40, repro,
2011-06-23,0.56, -3.23, -8.11, 1.83, 1.60, 7.33, repro,
2011-06-24,0.32, -4.54, -6.63, 1.83, 1.59, 7.27, repro,
2011-06-25,1.42, -4.89, 1.24, 1.84, 1.60, 7.32, repro,
2011-06-26,2.41, -4.94, -2.73, 1.86, 1.60, 7.37, repro,
2011-06-27,2.04, -5.49, -5.97, 1.85, 1.60, 7.41, repro,
2011-06-28,1.88, -4.09, -7.01, 1.85, 1.60, 7.34, repro,
2011-06-29,2.75, -5.20, -5.13, 1.84, 1.59, 7.34, repro,
2011-06-30,2.46, -4.31, -7.14, 1.85, 1.59, 7.32, repro,
2011-07-01,2.17, -3.83, -2.34, 1.84, 1.58, 7.28, repro,
2011-07-02,2.49, -4.60, -3.70, 1.85, 1.60, 7.36, repro,
2011-07-03,3.84, -4.10, -9.44, 1.85, 1.60, 7.38, repro,
2011-07-04,4.01, -4.49, -4.31, 1.86, 1.65, 7.54, repro,
2011-07-05,3.12, -2.79, -6.58, 1.98, 1.67, 8.07, repro,
2011-07-06,2.30, -5.67, -11.16, 1.92, 1.68, 7.89, repro,
2011-07-07,3.22, -3.42, -13.19, 2.01, 1.85, 8.28, repro,
2011-07-08,3.98, -4.30, -6.13, 1.89, 1.61, 7.59, repro,
2011-07-09,0.66, -4.42, -3.02, 1.89, 1.60, 7.54, repro,
2011-07-10,1.49, -3.07, 0.94, 1.88, 1.60, 7.55, repro,
2011-07-11,3.31, -3.92, -8.91, 1.88, 1.61, 7.56, repro,
2011-07-12,1.90, -3.19, -14.79, 1.87, 1.60, 7.51, repro,
2011-07-13,1.96, -4.85, -6.43, 1.89, 1.61, 7.61, repro,
2011-07-14,2.73, -4.06, -10.50, 1.90, 1.61, 7.58, repro,
2011-07-15,3.15, -4.50, -9.60, 1.88, 1.60, 7.52, repro,
2011-07-16,2.05, -5.36, -8.51, 1.88, 1.60, 7.50, repro,
2011-07-17,2.31, -3.58, -8.43, 1.87, 1.60, 7.50, repro,
2011-07-18,2.63, -4.07, -5.40, 1.89, 1.61, 7.55, repro,
2011-07-19,3.46, -2.46, -3.05, 1.89, 1.61, 7.55, repro,
2011-07-20,3.34, -2.69, -5.92, 1.90, 1.63, 7.60, repro,
2011-07-21,2.61, -4.92, -1.66, 1.89, 1.60, 7.52, repro,
2011-07-22,2.81, -5.30, -4.06, 1.89, 1.63, 7.59, repro,
2011-07-23,2.79, -3.40, -3.38, 1.88, 1.60, 7.48, repro,
2011-07-24,3.94, -4.49, -2.69, 1.89, 1.61, 7.53, repro,
2011-07-25,2.45, -2.75, -4.89, 1.90, 1.61, 7.57, repro,
2011-07-26,2.51, -4.01, -5.08, 1.89, 1.60, 7.53, repro,
2011-07-27,2.01, -3.98, -6.55, 1.87, 1.59, 7.44, repro,
2011-07-28,2.85, -3.93, -1.90, 1.91, 1.63, 7.65, repro,
2011-07-29,2.37, -3.94, -0.66, 1.89, 1.61, 7.57, repro,
2011-07-30,1.96, -3.98, -3.55, 1.89, 1.61, 7.58, repro,
2011-07-31,2.68, -3.40, -3.28, 1.89, 1.61, 7.58, repro,
2011-08-01,3.31, -3.73, -10.04, 1.88, 1.60, 7.54, repro,
2011-08-02,2.15, -4.73, -2.24, 1.87, 1.59, 7.46, repro,
2011-08-03,1.98, -3.42, -6.33, 1.93, 1.67, 7.79, repro,
2011-08-04,2.97, -2.84, -7.52, 1.89, 1.61, 7.58, repro,
2011-08-05,2.24, -3.71, -1.24, 1.88, 1.61, 7.54, repro,
2011-08-06,1.75, -3.65, -5.38, 1.90, 1.62, 7.61, repro,
2011-08-07,1.92, -3.15, -8.70, 1.90, 1.62, 7.61, repro,
2011-08-08,2.67, -4.10, -2.82, 1.89, 1.63, 7.63, repro,
2011-08-09,2.73, -2.59, -8.03, 1.91, 1.63, 7.68, repro,
2011-08-10,2.58, -4.31, -16.03, 1.91, 1.63, 7.63, repro,
2011-08-11,2.96, -3.73, -7.11, 2.00, 1.66, 7.96, repro,
2011-08-12,1.17, -3.85, -0.11, 1.99, 1.67, 7.98, repro,
2011-08-13,2.53, -4.84, -7.83, 1.90, 1.62, 7.56, repro,
2011-08-14,0.77, -3.99, -7.01, 1.91, 1.63, 7.58, repro,
2011-08-15,1.61, -3.21, -8.02, 1.91, 1.64, 7.64, repro,
2011-08-16,2.19, -4.36, -9.71, 1.92, 1.64, 7.68, repro,
2011-08-17,2.15, -4.57, -6.32, 1.89, 1.64, 7.61, repro,
2011-08-18,1.61, -4.06, -2.85, 1.88, 1.62, 7.57, repro,
2011-08-19,1.31, -4.35, -7.78, 1.88, 1.62, 7.58, repro,
2011-08-20,1.18, -2.75, -10.95, 1.89, 1.63, 7.61, repro,
2011-08-21,1.91, -2.83, -8.53, 1.93, 1.66, 7.76, repro,
2011-08-22,4.37, -4.12, -0.04, 1.91, 1.64, 7.64, repro,
2011-08-23,2.51, -4.21, -2.05, 1.93, 1.68, 7.74, repro,
2011-08-24,3.21, -4.18, -8.18, 1.88, 1.62, 7.55, repro,
2011-08-25,1.81, -4.92, -6.79, 1.87, 1.62, 7.52, repro,
2011-08-26,2.10, -4.28, 2.71, 2.03, 1.80, 8.02, repro,
2011-08-27,2.29, -3.60, -6.06, 1.96, 1.73, 8.01, repro,
2011-08-28,2.06, -4.01, -0.51, 1.94, 1.66, 7.83, repro,
2011-08-29,1.94, -4.09, -9.33, 1.91, 1.65, 7.67, repro,
2011-08-30,0.75, -4.18, -3.44, 1.97, 1.67, 7.94, repro,
2011-08-31,2.60, -6.26, -0.16, 1.99, 1.71, 8.07, repro,
2011-09-01,2.90, -4.80, -3.02, 1.96, 1.64, 7.98, repro,
2011-09-02,2.02, -3.34, 0.33, 1.96, 1.63, 7.93, repro,
2011-09-03,2.87, -6.20, 0.57, 1.89, 1.61, 7.58, repro,
2011-09-04,2.30, -4.22, -7.49, 1.87, 1.61, 7.53, repro,
2011-09-05,2.61, -4.89, -3.61, 2.09, 1.80, 8.33, repro,
2011-09-06,2.08, -4.91, -2.22, 1.89, 1.63, 7.61, repro,
2011-09-07,1.59, -4.08, -20.03, 2.35, 1.92, 9.08, repro,
2011-09-08,1.92, -3.92, -7.95, 1.93, 1.65, 7.74, repro,
2011-09-09,0.83, -3.90, -8.80, 1.90, 1.64, 7.61, repro,
2011-09-10,1.18, -3.84, -4.96, 1.89, 1.64, 7.59, repro,
2011-09-11,2.23, -2.92, -10.75, 1.91, 1.66, 7.70, repro,
2011-09-12,2.87, -3.75, -7.48, 1.95, 1.70, 7.83, repro,
2011-09-13,1.54, -4.49, -2.04, 1.96, 1.71, 7.80, repro,
2011-09-14,2.14, -4.99, -6.62, 1.89, 1.63, 7.55, repro,
2011-09-15,1.84, -5.86, -5.96, 1.88, 1.62, 7.52, repro,
2011-09-16,3.40, -4.19, -1.76, 1.92, 1.67, 7.61, repro,
2011-09-17,2.63, -3.69, -1.77, 1.89, 1.63, 7.60, repro,
2011-09-18,5.18, -4.73, -6.65, 1.92, 1.66, 7.64, repro,
2011-09-19,4.58, -3.86, -7.80, 1.96, 1.71, 7.82, repro,
2011-09-20,1.81, -4.44, -9.28, 1.92, 1.66, 7.61, repro,
2011-09-21,1.62, -5.00, -2.97, 1.91, 1.67, 7.67, repro,
2011-09-22,3.59, -5.12, -6.77, 1.90, 1.64, 7.63, repro,
2011-09-23,1.48, -4.89, -3.15, 1.91, 1.67, 7.66, repro,
2011-09-24,1.32, -4.88, -7.45, 1.92, 1.65, 7.62, repro,
2011-09-25,3.12, -4.44, -3.98, 1.89, 1.63, 7.61, repro,
2011-09-26,2.44, -3.64, -0.44, 1.93, 1.65, 7.70, repro,
2011-09-27,1.87, -5.83, -4.76, 1.87, 1.61, 7.50, repro,
2011-09-28,1.83, -4.60, -12.09, 1.97, 1.71, 7.79, repro,
2011-09-29,2.72, -5.36, -5.16, 1.96, 1.70, 7.71, repro,
2011-09-30,2.45, -4.96, -4.62, 2.01, 1.75, 7.90, repro,
2011-10-01,2.32, -4.38, -6.00, 2.00, 1.77, 7.94, repro,
2011-10-02,1.07, -5.33, -7.65, 2.04, 1.80, 8.14, repro,
2011-10-03,1.10, -4.41, -8.56, 1.96, 1.69, 7.69, repro,
2011-10-04,0.74, -6.12, -7.11, 1.93, 1.66, 7.63, repro,
2011-10-05,0.72, -5.58, -7.75, 1.93, 1.65, 7.59, repro,
2011-10-06,3.36, -5.70, -6.99, 1.96, 1.72, 7.78, repro,
2011-10-07,3.52, -6.53, -5.36, 1.92, 1.65, 7.59, repro,
2011-10-08,3.50, -5.05, -7.84, 1.96, 1.70, 7.70, repro,
2011-10-09,2.49, -4.64, -6.40, 1.96, 1.69, 7.73, repro,
2011-10-10,3.05, -5.30, -3.57, 1.93, 1.65, 7.62, repro,
2011-10-11,3.66, -4.40, -5.32, 1.96, 1.71, 7.77, repro,
2011-10-12,3.84, -4.90, -1.59, 1.95, 1.71, 7.79, repro,
2011-10-13,2.86, -5.37, -3.24, 1.94, 1.70, 7.68, repro,
2011-10-14,4.27, -4.54, -8.44, 1.92, 1.65, 7.59, repro,
2011-10-15,3.83, -2.97, -4.46, 1.96, 1.69, 7.72, repro,
2011-10-16,3.27, -3.39, -11.19, 1.93, 1.66, 7.69, repro,
2011-10-17,2.20, -3.35, -6.19, 1.88, 1.62, 7.56, repro,
2011-10-18,3.31, -4.21, -7.34, 1.92, 1.66, 7.63, repro,
2011-10-19,2.00, -4.47, -5.68, 1.95, 1.70, 7.68, repro,
2011-10-20,1.15, -4.64, -3.72, 1.92, 1.64, 7.58, repro,